Time,TemperatureF,DewpointF,PressureIn,WindDirection,WindDirectionDegrees,WindSpeedMPH,WindSpeedGustMPH,Humidity,HourlyPrecipIn,Conditions,Clouds,dailyrainin,SoftwareType,DateUTC
2013-04-13 00:02:00,74.0,74.0,29.72,NW,323,3.0,11.0,99,0.01,,,0.02,,2013-04-12 14:02:00,
2013-04-13 00:12:00,74.0,74.0,29.72,NW,323,3.0,11.0,99,0.01,,,0.02,,2013-04-12 14:12:00,
2013-04-13 00:20:00,73.0,73.0,29.71,NW,319,0.0,3.0,99,0.17,,,0.19,,2013-04-12 14:20:00,
2013-04-13 00:53:00,73.0,73.0,29.71,NW,319,0.0,3.0,99,0.17,,,0.19,,2013-04-12 14:53:00,
2013-04-13 01:02:00,73.0,73.0,29.71,NW,319,0.0,3.0,99,0.17,,,0.19,,2013-04-12 15:02:00,
2013-04-13 01:12:00,73.0,73.0,29.71,NW,319,0.0,3.0,99,0.17,,,0.19,,2013-04-12 15:12:00,
2013-04-13 01:50:00,73.0,73.0,29.70,NW,314,1.0,2.0,99,0.01,,,0.24,,2013-04-12 15:50:00,
2013-04-13 01:53:00,73.0,73.0,29.70,NW,313,0.0,3.0,99,0.05,,,0.24,,2013-04-12 15:53:00,
2013-04-13 02:03:00,73.0,73.0,29.70,NW,324,0.0,4.0,99,0.01,,,0.24,,2013-04-12 16:03:00,
2013-04-13 02:13:00,73.0,73.0,29.70,NW,324,0.0,4.0,99,0.01,,,0.24,,2013-04-12 16:13:00,
2013-04-13 02:22:00,73.0,73.0,29.70,NW,314,1.0,2.0,99,0.01,,,0.24,,2013-04-12 16:22:00,
2013-04-13 02:33:00,73.0,73.0,29.70,NW,314,1.0,2.0,99,0.01,,,0.24,,2013-04-12 16:33:00,
2013-04-13 02:42:00,73.0,73.0,29.70,NW,314,1.0,2.0,99,0.01,,,0.24,,2013-04-12 16:42:00,
2013-04-13 03:03:00,73.0,73.0,29.68,NW,318,1.0,4.0,99,0.02,,,0.26,,2013-04-12 17:03:00,
2013-04-13 03:12:00,73.0,73.0,29.68,NW,318,1.0,4.0,99,0.02,,,0.26,,2013-04-12 17:12:00,
2013-04-13 03:22:00,72.0,72.0,29.65,NW,326,1.0,3.0,99,0.02,,,0.26,,2013-04-12 17:22:00,
2013-04-13 03:32:00,73.0,73.0,29.66,NW,324,0.0,6.0,99,0.02,,,0.26,,2013-04-12 17:32:00,
2013-04-13 03:43:00,73.0,73.0,29.66,NW,324,0.0,6.0,99,0.02,,,0.26,,2013-04-12 17:43:00,
2013-04-13 04:04:00,73.0,73.0,29.65,NNW,341,1.0,7.0,99,0.00,,,0.26,,2013-04-12 18:04:00,
2013-04-13 04:13:00,73.0,73.0,29.65,NNW,341,1.0,7.0,99,0.00,,,0.26,,2013-04-12 18:13:00,
2013-04-13 04:25:00,73.0,73.0,29.67,NW,316,1.0,4.0,99,0.00,,,0.26,,2013-04-12 18:25:00,
2013-04-13 05:32:00,74.0,74.0,29.68,NW,320,0.0,4.0,99,0.00,,,0.26,,2013-04-12 19:32:00,
2013-04-13 05:42:00,74.0,74.0,29.68,NW,320,0.0,4.0,99,0.00,,,0.26,,2013-04-12 19:42:00,
2013-04-13 05:53:00,74.0,74.0,29.68,NW,314,0.0,3.0,99,0.00,,,0.26,,2013-04-12 19:53:00,
2013-04-13 06:02:00,75.0,75.0,29.69,NW,312,0.0,2.0,99,0.00,,,0.26,,2013-04-12 20:02:00,
2013-04-13 06:11:00,75.0,75.0,29.69,NW,312,0.0,2.0,99,0.00,,,0.26,,2013-04-12 20:11:00,
2013-04-13 06:22:00,74.0,74.0,29.70,NW,314,0.0,2.0,99,0.00,,,0.26,,2013-04-12 20:22:00,
2013-04-13 06:32:00,75.0,75.0,29.70,NW,309,0.0,4.0,99,0.00,,,0.26,,2013-04-12 20:32:00,
2013-04-13 06:42:00,75.0,75.0,29.70,NW,309,0.0,4.0,99,0.00,,,0.26,,2013-04-12 20:42:00,
2013-04-13 06:52:00,74.0,74.0,29.69,NNW,330,0.0,3.0,99,0.00,,,0.26,,2013-04-12 20:52:00,
2013-04-13 07:01:00,74.0,74.0,29.70,NW,314,1.0,3.0,99,0.00,,,0.26,,2013-04-12 21:01:00,
2013-04-13 07:11:00,74.0,74.0,29.70,NW,314,1.0,3.0,99,0.00,,,0.26,,2013-04-12 21:11:00,
2013-04-13 07:21:00,75.0,75.0,29.70,NW,314,0.0,3.0,99,0.00,,,0.26,,2013-04-12 21:21:00,
2013-04-13 07:32:00,75.0,75.0,29.70,NW,314,0.0,3.0,99,0.00,,,0.26,,2013-04-12 21:32:00,
2013-04-13 07:42:00,75.0,75.0,29.70,NW,314,0.0,3.0,99,0.00,,,0.26,,2013-04-12 21:42:00,
2013-04-13 07:52:00,77.0,77.0,29.73,NW,314,0.0,2.0,99,0.00,,,0.26,,2013-04-12 21:52:00,
2013-04-13 08:02:00,77.0,77.0,29.73,NW,320,0.0,2.0,99,0.00,,,0.26,,2013-04-12 22:02:00,
2013-04-13 08:12:00,77.0,77.0,29.73,NW,320,0.0,2.0,99,0.00,,,0.26,,2013-04-12 22:12:00,
2013-04-13 08:22:00,78.0,78.0,29.74,NW,319,0.0,3.0,99,0.00,,,0.26,,2013-04-12 22:22:00,
2013-04-13 08:32:00,80.0,80.0,29.74,NW,320,0.0,3.0,99,0.00,,,0.26,,2013-04-12 22:32:00,
2013-04-13 08:42:00,80.0,80.0,29.74,NW,320,0.0,3.0,99,0.00,,,0.26,,2013-04-12 22:42:00,
2013-04-13 08:52:00,80.0,80.0,29.74,NW,320,0.0,3.0,99,0.00,,,0.26,,2013-04-12 22:52:00,
2013-04-13 09:03:00,86.0,86.0,29.74,NW,314,1.0,4.0,99,0.00,,,0.26,,2013-04-12 23:03:00,
2013-04-13 09:12:00,86.0,86.0,29.74,NW,314,1.0,4.0,99,0.00,,,0.26,,2013-04-12 23:12:00,
2013-04-13 09:22:00,86.0,86.0,29.74,NW,314,1.0,4.0,99,0.00,,,0.26,,2013-04-12 23:22:00,
2013-04-13 09:32:00,86.0,86.0,29.75,NW,316,0.0,2.0,99,0.00,,,0.26,,2013-04-12 23:32:00,
2013-04-13 09:42:00,86.0,86.0,29.75,NW,316,0.0,2.0,99,0.00,,,0.26,,2013-04-12 23:42:00,
2013-04-13 09:52:00,85.0,85.0,29.75,NW,314,2.0,5.0,99,0.00,,,0.26,,2013-04-12 23:52:00,
2013-04-13 10:01:00,86.0,86.0,29.76,NW,315,1.0,5.0,99,0.00,,,0.26,,2013-04-13 00:01:00,
2013-04-13 10:12:00,86.0,86.0,29.76,NW,315,1.0,5.0,99,0.00,,,0.26,,2013-04-13 00:12:00,
2013-04-13 10:22:00,84.0,84.0,29.76,NW,315,1.0,3.0,99,0.00,,,0.26,,2013-04-13 00:22:00,
2013-04-13 10:32:00,85.0,85.0,29.76,NW,316,1.0,3.0,99,0.00,,,0.26,,2013-04-13 00:32:00,
2013-04-13 10:42:00,85.0,85.0,29.76,NW,316,1.0,3.0,99,0.00,,,0.26,,2013-04-13 00:42:00,
2013-04-13 10:52:00,84.0,84.0,29.77,NW,314,0.0,4.0,99,0.00,,,0.26,,2013-04-13 00:52:00,
2013-04-13 11:01:00,84.0,84.0,29.77,NW,314,0.0,4.0,99,0.00,,,0.26,,2013-04-13 01:01:00,
2013-04-13 11:12:00,84.0,84.0,29.77,NW,314,0.0,4.0,99,0.00,,,0.26,,2013-04-13 01:12:00,
2013-04-13 11:22:00,84.0,84.0,29.77,NW,314,0.0,4.0,99,0.00,,,0.26,,2013-04-13 01:22:00,
2013-04-13 11:31:00,88.0,87.0,29.75,NW,316,1.0,5.0,96,0.00,,,0.26,,2013-04-13 01:31:00,
2013-04-13 11:42:00,88.0,87.0,29.75,NW,316,1.0,5.0,96,0.00,,,0.26,,2013-04-13 01:42:00,
2013-04-13 11:52:00,87.0,83.0,29.74,NW,318,2.0,6.0,89,0.00,,,0.26,,2013-04-13 01:52:00,
2013-04-13 12:02:00,87.0,85.0,29.73,NW,318,1.0,6.0,94,0.00,,,0.26,,2013-04-13 02:02:00,
2013-04-13 12:11:00,87.0,85.0,29.73,NW,318,1.0,6.0,94,0.00,,,0.26,,2013-04-13 02:11:00,
2013-04-13 12:22:00,88.0,85.0,29.73,NW,316,2.0,7.0,90,0.00,,,0.26,,2013-04-13 02:22:00,
2013-04-13 12:32:00,88.0,85.0,29.73,NW,316,2.0,7.0,90,0.00,,,0.26,,2013-04-13 02:32:00,
2013-04-13 12:42:00,88.0,85.0,29.73,NW,316,2.0,7.0,90,0.00,,,0.26,,2013-04-13 02:42:00,
2013-04-13 12:52:00,86.0,82.0,29.72,NW,313,2.0,6.0,89,0.00,,,0.26,,2013-04-13 02:52:00,
2013-04-13 13:02:00,88.0,84.0,29.70,NW,306,2.0,8.0,89,0.00,,,0.26,,2013-04-13 03:02:00,
2013-04-13 13:12:00,88.0,84.0,29.70,NW,306,2.0,8.0,89,0.00,,,0.26,,2013-04-13 03:12:00,
2013-04-13 13:22:00,89.0,85.0,29.70,NW,317,2.0,6.0,88,0.00,,,0.26,,2013-04-13 03:22:00,
2013-04-13 13:32:00,89.0,85.0,29.70,NW,317,2.0,6.0,88,0.00,,,0.26,,2013-04-13 03:32:00,
2013-04-13 13:42:00,89.0,85.0,29.70,NW,317,2.0,6.0,88,0.00,,,0.26,,2013-04-13 03:42:00,
2013-04-13 13:53:00,89.0,85.0,29.70,NW,317,2.0,6.0,88,0.00,,,0.26,,2013-04-13 03:53:00,
2013-04-13 14:02:00,91.0,83.0,29.69,NW,314,1.0,4.0,77,0.00,,,0.26,,2013-04-13 04:02:00,
2013-04-13 14:12:00,91.0,83.0,29.69,NW,314,1.0,4.0,77,0.00,,,0.26,,2013-04-13 04:12:00,
2013-04-13 14:22:00,91.0,83.0,29.68,NW,314,2.0,4.0,78,0.00,,,0.26,,2013-04-13 04:22:00,
2013-04-13 14:33:00,91.0,82.0,29.68,NW,306,1.0,5.0,76,0.00,,,0.26,,2013-04-13 04:33:00,
2013-04-13 14:42:00,91.0,82.0,29.68,NW,306,1.0,5.0,76,0.00,,,0.26,,2013-04-13 04:42:00,
2013-04-13 14:53:00,91.0,82.0,29.68,NW,306,1.0,5.0,76,0.00,,,0.26,,2013-04-13 04:53:00,
2013-04-13 15:02:00,90.0,84.0,29.67,NW,316,0.0,3.0,83,0.00,,,0.26,,2013-04-13 05:02:00,
2013-04-13 15:12:00,90.0,84.0,29.67,NW,316,0.0,3.0,83,0.00,,,0.26,,2013-04-13 05:12:00,
2013-04-13 15:22:00,93.0,83.0,29.67,NW,319,1.0,4.0,73,0.00,,,0.26,,2013-04-13 05:22:00,
2013-04-13 15:32:00,93.0,83.0,29.67,NW,308,1.0,4.0,72,0.00,,,0.26,,2013-04-13 05:32:00,
2013-04-13 15:42:00,93.0,83.0,29.67,NW,308,1.0,4.0,72,0.00,,,0.26,,2013-04-13 05:42:00,
2013-04-13 15:52:00,93.0,83.0,29.67,NW,307,2.0,4.0,74,0.00,,,0.26,,2013-04-13 05:52:00,
2013-04-13 16:01:00,91.0,84.0,29.67,NW,314,1.0,4.0,80,0.00,,,0.26,,2013-04-13 06:01:00,
2013-04-13 16:12:00,91.0,84.0,29.67,NW,314,1.0,4.0,80,0.00,,,0.26,,2013-04-13 06:12:00,
2013-04-13 16:22:00,91.0,84.0,29.67,NW,313,1.0,4.0,81,0.00,,,0.26,,2013-04-13 06:22:00,
2013-04-13 16:42:00,89.0,85.0,29.68,NW,319,1.0,4.0,87,0.00,,,0.26,,2013-04-13 06:42:00,
2013-04-13 16:53:00,89.0,85.0,29.68,NW,319,1.0,4.0,87,0.00,,,0.26,,2013-04-13 06:53:00,
2013-04-13 17:03:00,87.0,83.0,29.68,WNW,295,0.0,5.0,88,0.00,,,0.26,,2013-04-13 07:03:00,
2013-04-13 17:13:00,87.0,83.0,29.68,WNW,295,0.0,5.0,88,0.00,,,0.26,,2013-04-13 07:13:00,
2013-04-13 17:23:00,83.0,83.0,29.68,NW,309,1.0,4.0,99,0.00,,,0.26,,2013-04-13 07:23:00,
2013-04-13 17:33:00,83.0,83.0,29.68,NW,309,1.0,4.0,99,0.00,,,0.26,,2013-04-13 07:33:00,
2013-04-13 17:43:00,83.0,83.0,29.68,NW,309,1.0,4.0,99,0.00,,,0.26,,2013-04-13 07:43:00,
2013-04-13 17:54:00,82.0,82.0,29.68,NW,326,1.0,4.0,99,0.00,,,0.26,,2013-04-13 07:54:00,
2013-04-13 18:03:00,81.0,81.0,29.69,NW,319,0.0,3.0,99,0.00,,,0.26,,2013-04-13 08:03:00,
2013-04-13 18:14:00,81.0,81.0,29.69,NW,319,0.0,3.0,99,0.00,,,0.26,,2013-04-13 08:14:00,
2013-04-13 18:23:00,80.0,80.0,29.70,NW,323,0.0,3.0,99,0.00,,,0.26,,2013-04-13 08:23:00,
2013-04-13 18:32:00,80.0,80.0,29.70,NW,323,0.0,3.0,99,0.00,,,0.26,,2013-04-13 08:32:00,
2013-04-13 18:40:00,79.0,79.0,29.71,NW,318,1.0,3.0,99,0.00,,,0.26,,2013-04-13 08:40:00,
2013-04-13 18:43:00,80.0,80.0,29.70,NW,323,0.0,3.0,99,0.00,,,0.26,,2013-04-13 08:43:00,
2013-04-13 18:53:00,79.0,79.0,29.71,NW,321,0.0,6.0,99,0.00,,,0.26,,2013-04-13 08:53:00,
2013-04-13 19:03:00,79.0,79.0,29.71,NW,318,1.0,3.0,99,0.00,,,0.26,,2013-04-13 09:03:00,
2013-04-13 19:13:00,79.0,79.0,29.71,NW,318,1.0,3.0,99,0.00,,,0.26,,2013-04-13 09:13:00,
2013-04-13 19:22:00,79.0,79.0,29.71,NW,318,1.0,3.0,99,0.00,,,0.26,,2013-04-13 09:22:00,
2013-04-13 19:33:00,79.0,79.0,29.71,NW,318,1.0,3.0,99,0.00,,,0.26,,2013-04-13 09:33:00,
2013-04-13 19:55:00,78.0,78.0,29.73,NW,314,0.0,2.0,99,0.00,,,0.26,,2013-04-13 09:55:00,
2013-04-13 20:04:00,78.0,78.0,29.74,NW,314,0.0,3.0,99,0.00,,,0.26,,2013-04-13 10:04:00,
2013-04-13 20:14:00,78.0,78.0,29.74,NW,320,0.0,2.0,99,0.00,,,0.26,,2013-04-13 10:14:00,
2013-04-13 20:23:00,78.0,78.0,29.74,NW,320,0.0,2.0,99,0.00,,,0.26,,2013-04-13 10:23:00,
2013-04-13 20:35:00,77.0,77.0,29.75,NNW,327,0.0,3.0,99,0.00,,,0.25,,2013-04-13 10:35:00,
2013-04-13 20:44:00,77.0,77.0,29.75,NNW,327,0.0,3.0,99,0.00,,,0.25,,2013-04-13 10:44:00,
2013-04-13 20:53:00,77.0,77.0,29.76,NW,309,1.0,4.0,99,0.00,,,0.25,,2013-04-13 10:53:00,
2013-04-13 21:04:00,77.0,77.0,29.76,NW,309,1.0,4.0,99,0.00,,,0.25,,2013-04-13 11:04:00,
2013-04-13 21:12:00,77.0,77.0,29.76,NW,309,1.0,4.0,99,0.00,,,0.25,,2013-04-13 11:12:00,
2013-04-13 21:23:00,77.0,77.0,29.77,NW,320,0.0,2.0,99,0.00,,,0.25,,2013-04-13 11:23:00,
2013-04-13 21:32:00,77.0,77.0,29.77,NW,314,0.0,1.0,99,0.00,,,0.25,,2013-04-13 11:32:00,
2013-04-13 21:44:00,77.0,77.0,29.77,NW,314,0.0,1.0,99,0.00,,,0.25,,2013-04-13 11:44:00,
2013-04-13 21:52:00,76.0,76.0,29.78,NW,314,0.0,4.0,99,0.00,,,0.25,,2013-04-13 11:52:00,
2013-04-13 22:04:00,76.0,76.0,29.78,NW,314,0.0,2.0,99,0.00,,,0.25,,2013-04-13 12:04:00,
2013-04-13 22:13:00,76.0,76.0,29.78,NW,314,0.0,2.0,99,0.00,,,0.25,,2013-04-13 12:13:00,
2013-04-13 22:22:00,76.0,76.0,29.78,NW,314,0.0,2.0,99,0.00,,,0.25,,2013-04-13 12:22:00,
2013-04-13 22:33:00,76.0,76.0,29.78,NW,314,0.0,2.0,99,0.00,,,0.25,,2013-04-13 12:33:00,
2013-04-13 22:44:00,76.0,76.0,29.78,NW,314,0.0,2.0,99,0.00,,,0.25,,2013-04-13 12:44:00,
2013-04-13 23:04:00,76.0,76.0,29.78,NW,314,0.0,3.0,99,0.00,,,0.25,,2013-04-13 13:04:00,
2013-04-13 23:22:00,76.0,76.0,29.79,NW,324,0.0,3.0,99,0.00,,,0.24,,2013-04-13 13:22:00,
2013-04-13 23:32:00,76.0,76.0,29.78,NW,314,0.0,1.0,99,0.00,,,0.24,,2013-04-13 13:32:00,
2013-04-13 23:43:00,76.0,76.0,29.78,NW,314,0.0,1.0,99,0.00,,,0.24,,2013-04-13 13:43:00,
2013-04-13 23:52:00,76.0,76.0,29.79,NW,314,0.0,2.0,99,0.00,,,0.24,,2013-04-13 13:52:00,